Weather in Voskresenskoe

Russia / Kaluga Oblast     54°34′13″N   36°24′43″E
temp.,
°C
wind,
m/s
gust,
m/s
humid.,
%
clouds,
%
prec.,
mm/h
press.,
hPa
HPBL,
m
29 july, thu
thu2900:00+17ssw399825 0.1 1009243
03:00+17wsw4109816 0.1 1009325
06:00+16w399949 0.0 1009349
09:00+20w478030 0.0 1008583
12:00+26wnw57532 0.0 10081534
15:00+28w464188 0.0 10072420
18:00+25wsw2660100 0.0 1006223
21:00+20wsw11749 0.0 100611
30 july, fri
fri3000:00+20ssw227383 0.0 100627
03:00+17nw2694100 0.5 1007149
06:00+17e2498100 2.3 1006102
09:00+19wsw1292100 2.3 1006317
12:00+24w346546 0.2 10061149
15:00+23w577196 0.7 1006662
18:00+24w267346 1.3 1006807
21:00+18wnw22810 1.5 100719
31 july, sat
sat3100:00+16wsw33855 0.0 100846
03:00+15wsw358843 0.0 100879
06:00+15sw368965 0.0 1007129
09:00+22wsw51054100 0.0 1008851
12:00+25wsw6104523 0.0 10072268
15:00+27wsw79370 0.0 10072204
18:00+25w694224 0.0 10081816
21:00+19sw33659 0.0 100940
1 august, sun
sun100:00+17sw237537 0.0 100936
03:00+16ssw2280100 0.0 101028
06:00+17s2680100 0.0 1010134
09:00+21s497999 0.9 1009355
12:00+29ssw71239100 0.0 10082309
15:00+28wsw6114684 0.0 10072064
18:00+26w51063100 0.0 10081171
21:00+20w228488 0.0 100930
2 august, mon
mon200:00+18ssw00925 0.0 101011
03:00+17se22935 0.0 101012
06:00+17se23925 0.0 100963
09:00+23sse3565100 0.3 1008497
12:00+27s465599 0.2 10061145
15:00+28ssw6105372 0.3 10051352
18:00+27ssw594952 0.0 10041369
21:00+22s5127299 0.1 1003366